Location: ASU Dark Sky Observatory
(36.2504°N, 81.4125°W)
Time: 19:47:44
(UTC-04:00)

Daily predictions for brighter satellites

Satellite Brightness Start Highest point End
(mag) Time Altitude Azimuth Time Altitude Azimuth Time Altitude Azimuth
Milstar 3 4.3 19:19:16 10° WSW 19:27:46 59° S 19:43:55 10° ESE
ATLAS CENTAUR R/B 3.1 19:26:01 10° SSW 19:30:04 79° SE 19:42:27 10° NE
SKYMED 2 3.6 19:29:27 10° NNE 19:33:48 87° ESE 19:38:09 10° SSW
Cosmos 724 4.5 19:28:36 10° S 19:34:18 54° ESE 19:40:09 10° NE
Cosmos 1408 Rocket 4.3 19:30:39 10° NNE 19:34:31 31° ENE 19:38:20 10° SE
ATLAS 5 CENTAUR R/B 1.8 19:30:36 10° SSW 19:35:18 85° ESE 19:40:23 10° NNE
NOSS 3-2 (C) 3.6 19:32:44 10° SSW 19:38:45 85° WNW 19:45:18 10° NNE
Cosmos 2237 Rocket 4.4 19:34:52 10° WSW 19:39:43 29° WNW 19:44:36 10° N
Cosmos 192 4.4 19:35:17 10° SSW 19:40:14 87° ESE 19:45:13 10° NNE
Cosmos 1484 Rocket 2.7 19:38:49 10° SSE 19:42:38 86° ENE 19:46:33 10° N
SL-19 R/B 4.3 19:39:38 10° SSE 19:45:11 69° ENE 19:51:06 10° N
ALOS 3.9 19:42:57 10° ESE 19:45:42 16° ENE 19:48:26 10° NNE
Cosmos 1758 3.8 19:41:56 10° SSE 19:45:44 39° E 19:49:34 10° NNE
Helios 1A 4.1 19:46:19 10° ESE 19:49:43 24° ENE 19:53:07 10° NNE
Spot 2 Rocket 4.2 19:45:30 10° SE 19:49:58 33° ENE 19:54:27 10° N
ISS -3.2 19:48:16 10° SSW 19:51:26 52° SE 19:54:37 10° ENE
Cosmos 1544 3.9 19:52:02 10° SSE 19:55:21 31° E 19:58:42 10° NNE
Cosmos 1269 Rocket 4.4 19:50:31 10° S 19:55:27 42° ESE 20:00:25 10° NNE
METEOR-M 4.4 19:53:07 10° SE 19:58:14 47° ENE 20:03:20 10° N
Okean 3 Rocket 4.5 19:53:56 10° NNW 19:58:23 55° W 20:02:48 10° S
SL-8 R/B 3.7 19:54:26 10° SW 19:59:12 90° SSE 20:04:00 10° NE
Timation 1 Rocket 4.4 19:54:14 10° NNW 20:00:13 89° WSW 20:06:11 10° SSE
SL-16 R/B 3.5 19:55:50 10° SW 20:01:12 43° WNW 20:06:38 10° N
SAR-Lupe-4 3.5 19:58:14 10° SSE 20:01:48 88° WSW 20:05:23 10° NNW
Meteor 1-21 Rocket 4.4 19:57:28 10° N 20:02:47 46° ENE 20:08:04 10° SSE
Cosmos 1766 4.4 19:59:41 10° SSW 20:03:30 48° W 20:07:23 10° N
Cosmos 1743 Rocket 4.3 20:00:34 10° NNE 20:04:31 31° ENE 20:08:25 10° SE
Resurs 01 Rocket 2.0 20:00:40 10° SE 20:04:52 42° ENE 20:09:04 10° N
HJ-1C 3.7 20:05:28 10° SSE 20:08:39 42° ENE 20:11:51 10° N
Cosmos 1378 4.1 20:05:33 10° NNW 20:09:10 50° W 20:12:46 10° S
Atlas Centaur 2 4.3 20:02:34 10° W 20:10:01 34° SSW 20:17:13 10° SE
FENGYUN 3A 4.3 20:09:55 11° SE 20:14:24 33° ENE 20:19:10 10° N
USA 215 3.2 20:08:59 10° NE 20:15:31 71° SE 20:22:01 10° SW
Meteor 2-12 Rocket 4.4 20:13:16 10° S 20:19:24 80° E 20:25:34 10° N
FREGAT/IRIS 3.0 20:18:49 10° S 20:21:52 66° WSW 20:24:57 10° NNW
Meteor 1-28 Rocket 4.3 20:20:10 10° N 20:23:45 46° WNW 20:27:18 10° SSW
Abrixas 3.9 20:22:22 10° W 20:25:09 34° NNW 20:26:59 17° NNE
Helios 1B rocket 2.3 20:21:05 10° NNE 20:25:12 83° E 20:29:19 10° SSW
Nadezhda 4 Rocket 4.0 20:19:15 10° N 20:25:28 60° E 20:31:33 10° SSE
OAO 1 Rocket 4.4 20:21:42 10° W 20:27:04 80° S 20:29:57 28° E
H-2A R/B 3.7 20:28:07 28° ENE 20:28:07 28° ENE 20:31:20 10° NNE
Cosmos 1805 4.1 20:26:52 10° SSW 20:30:42 52° W 20:34:32 10° N
CZ-4B DEB 3.7 20:31:56 32° NE 20:31:56 32° NE 20:34:18 10° N
GP-B 4.3 20:27:54 10° NNE 20:30:36 24° ENE 20:30:36 24° ENE
SeaSat 1 3.9 20:34:29 20° SE 20:34:29 20° SE 20:36:30 10° SSE
Cosmos 1092 Rocket 4.1 20:28:25 10° N 20:34:26 51° E 20:40:09 11° SSE
Cosmos 1346 2.9 20:32:04 10° N 20:35:03 88° W 20:36:08 36° S
GPS 2-04 Rocket1 2.3 20:32:35 10° WSW 20:36:02 68° S 20:36:40 53° ESE
Gbstr 26 Del rocket 3.1 20:32:08 10° SW 20:36:26 83° SE 20:39:48 22° NE
Cosmos 1953 3.7 20:34:27 10° SSW 20:38:13 41° W 20:42:00 10° N
Cosmos 1943 Rocket 3.8 20:36:30 10° NNE 20:39:37 17° NE 20:39:37 17° NE
Cosmos 1943 3.1 20:36:56 10° S 20:42:30 64° ESE 20:48:04 10° NNE
Meteor 1-29 3.4 20:39:25 10° N 20:42:54 65° WNW 20:46:21 10° SSW
Cosmos 2369 Rocket 2.6 20:38:50 10° N 20:44:10 41° ENE 20:45:20 36° E
Cosmos-2242 4.4 20:42:21 10° SSW 20:46:28 42° W 20:50:39 10° N
Cosmos 2026 Rocket 4.5 20:41:01 10° NNE 20:46:31 34° ENE 20:46:56 34° E
Cosmos 1634 Rocket 4.0 20:41:14 10° SSE 20:47:19 57° E 20:53:22 10° NNE
Cosmos 1733 3.0 20:49:20 10° S 20:53:12 84° E 20:57:05 10° N
Cosmos 2151 4.2 20:49:50 10° N 20:52:06 27° NNE 20:52:06 27° NNE
Cosmos 1470 2.9 20:51:17 10° SSW 20:55:10 73° W 20:59:03 10° N
SEDSat Delta rocket 4.5 20:48:57 10° W 20:55:22 51° S 20:57:50 35° SE
OAO 3 Rocket 3.3 20:51:51 10° W 20:56:33 63° SSW 20:57:20 54° SSE
Cosmos 839 Rocket 4.3 20:55:06 10° NNW 21:02:23 53° NE 21:03:47 45° E
Cosmos 1674 3.1 21:01:50 10° NNW 21:05:40 62° W 21:06:20 52° SW
ASTEX 1 3.5 21:00:47 10° N 21:05:41 73° W 21:10:32 10° SSW
Cosmos 2195 Rocket 4.5 21:02:28 10° N 21:08:46 62° E 21:10:05 51° SE
Cosmos 1842 Rocket 4.4 21:06:35 10° SSW 21:10:45 48° W 21:14:59 10° N
Cosmos 1500 Rocket 4.1 21:08:48 10° NNW 21:13:10 58° W 21:14:49 35° SSW
CENTAUR R/B 2.9 21:12:12 10° SW 21:18:06 62° NW 21:24:47 10° NNE
Meteor 1-16 Rocket 3.9 21:22:42 84° NNE 21:22:42 84° NNE 21:27:51 10° N
ALOS 3.1 21:20:32 27° SSW 21:22:43 47° W 21:27:13 10° NNW
ISS -0.4 21:25:50 10° WNW 21:27:25 16° NW 21:27:25 16° NW
Meteor 1-11 4.4 21:27:42 10° N 21:32:38 65° N 21:32:38 65° N
Cosmos 1627 Rocket 4.5 21:30:35 10° N 21:36:48 79° W 21:37:44 65° SSW
Cosmos 1943 Rocket 4.0 22:18:43 10° NNW 22:21:09 26° NW 22:21:09 26° NW
CZ-3A R/B 4.3 21:44:46 10° SW 22:26:34 89° SE 22:27:53 73° NE
Cosmos 2369 Rocket 4.1 22:23:25 10° NW 22:27:09 24° W 22:27:09 24° W
